Regional Weather Roundup
Issued by NWS

Home | Current Version | Previous Version | Graphics & Text | Print | Product List | Glossary On
Versions: 1 2 3 4 5 6 7 8 9 10 11 12 13 14 15 16 17 18 19 20 21 22 23 24 25 26 27 28 29 30 31 32 33 34 35 36 37 38 39 40 41 42 43 44 45 46 47 48 49 50
000
ASUS43 KBIS 261702
RWRND

NORTH DAKOTA REGIONAL WEATHER ROUNDUP
NATIONAL WEATHER SERVICE BISMARCK ND
1200 PM CDT FRI MAY 26 2017

NOTE: "FAIR" INDICATES FEW OR NO CLOUDS BELOW 12,000 FEET WITH NO
SIGNIFICANT WEATHER AND/OR OBSTRUCTIONS TO VISIBILITY.


NDZ001>003-009>011-017-261800-
NORTHWEST NORTH DAKOTA

CITY           SKY/WX    TMP DP  RH WIND       PRES   REMARKS
WILLISTON      CLOUDY    59  41  51 W14G21    29.77F
MINOT          CLOUDY    54  45  71 W16       29.71R
MINOT AFB      CLOUDY    56  45  65 W22       29.70R
$$

NDZ018>021-031>035-040>046-261800-
SOUTHWEST NORTH DAKOTA

CITY           SKY/WX    TMP DP  RH WIND       PRES   REMARKS
BISMARCK       CLOUDY    59  40  49 NW16G23   29.78S
DICKINSON      PTSUNNY   59  37  44 NW23G36   29.78F
GARRISON         N/A     58  43  57 W18G28    29.73S
HETTINGER ARPT MOSUNNY   62  37  39 NW26G40   29.83S
$$

NDZ004>008-012>016-024-026-027-054-261800-
NORTHEAST NORTH DAKOTA

CITY           SKY/WX    TMP DP  RH WIND       PRES   REMARKS
GRAND FORKS    MOSUNNY   67  49  52 W18G25    29.65R
GRND FRKS AFB  MOSUNNY   66  48  50 W18       29.66S
DEVILS LAKE    CLOUDY    57  44  62 W21       29.68R
$$

NDZ022-023-025-028>030-036>039-047>053-261800-
SOUTHEAST NORTH DAKOTA

CITY           SKY/WX    TMP DP  RH WIND       PRES   REMARKS
FARGO          MOSUNNY   69  47  45 W16G23    29.69R
JAMESTOWN      CLOUDY    60  42  51 W18       29.73R
$$





USA.gov is the U.S. government's official web portal to all federal, state and local government web resources and services.